User: anonymous   Login
Location: Cherry Springs State Park
(41.6616°N, 77.8240°W)
Time: 00:32:26
(UTC-04:00)
Language:

Cosmos 1437 - Orbit

View from above orbital plane
View from above orbital plane
View from above satellite
View from above satellite

Ground track
Ground track

The orbit data is extracted from the following two-line orbital elements,

1 13770U 83003A   16207.80110979  .00007055  00000-0  13775-3 0  9996
2 13770  81.1590 188.0742 0006486 341.0925  19.0078 15.47276819835980
Epoch (UTC): 25 July 2016 19:13:35
Eccentricity: 0.0006486
inclination: 81.1590°
perigee height: 420 km
apogee height: 429 km
right ascension of ascending node: 188.0742°
argument of perigee: 341.0925°
revolutions per day: 15.47276819
mean anomaly at epoch: 19.0078°
orbit number at epoch: 83598

The dashed part of the orbit path shows where the satellite is in the earth's shadow,  

DLR